Le Luc, France

7:06 AM CEST on June 26, 2017 (GMT +0200)
Le Cannet Army

Weather History for LFMC - March, 2014

Change the Weather History Date:

Wednesday, March 5, 2014

  Actual Average Record
Temperature  
Mean Temperature 49 °F -  
Max Temperature 67 °F 59 °F - ()
Min Temperature 31 °F 44 °F - ()
Degree Days  
Heating Degree Days 16    
Moisture  
Dew Point 33 °F    
Average Humidity 55    
Maximum Humidity 87    
Minimum Humidity 13    
Precipitation  
Precipitation 0.00 in - - ()
Sea Level Pressure  
Sea Level Pressure 29.81 in    
Wind  
Wind Speed 3 mph ()    
Max Wind Speed 9 mph    
Max Gust Speed -    
Visibility 7.7 miles    
Events      
T = Trace of Precipitation, MM = Missing Value Source: Averaged Metar Reports

Daily Weather History Graph

Daily Weather History Graph

Search for Another Location

Airport or City:

Trip Planner

Search our weather history database for the weather conditions in past years. The results will help you decide how hot, cold, wet, or windy it might be!

Date:

Astronomy

Mar. 05, 2014 Rise Set
Actual Time 7:04 AM CET 6:28 PM CET
Civil Twilight 6:35 AM CET 6:56 PM CET
Nautical Twilight 6:02 AM CET 7:29 PM CET
Astronomical Twilight 5:29 AM CET 8:03 PM CET
Moon 9:11 AM CET (3/5) 11:29 PM CET (3/5)
Length of Visible Light 12h 20m
Length of Day
11h 23m
Waxing Crescent, 21% of the Moon is Illuminated
Mar 5
Waxing Crescent
Mar 8
First Quarter
Mar 16
Full
Mar 24
Last Quarter
Mar 30
New

Hourly Weather History & Observations

Time (CET) Temp. Windchill Dew Point Humidity Pressure Visibility Wind Dir Wind Speed Gust Speed Precip Events Conditions
12:00 AM 45 °F - 31 °F 45% 29.64 in 12 mi SW 5.8 mph - -   Clear
12:00 AM 44.6 °F 41.4 °F 30.2 °F 57% 29.62 in 6.2 mi SW 5.8 mph - N/A   Unknown
12:30 AM 44.6 °F 41.4 °F 30.2 °F 57% 29.62 in 6.2 mi SW 5.8 mph - N/A   Unknown
1:00 AM 44 °F - 31 °F 47% 29.66 in 12 mi SW 5.8 mph - -   Clear
1:00 AM 44.6 °F 41.4 °F 30.2 °F 57% 29.62 in 6.2 mi SW 5.8 mph - N/A   Unknown
1:30 AM 44.6 °F 40.2 °F 30.2 °F 57% 29.65 in 6.2 mi WSW 8.1 mph - N/A   Unknown
2:00 AM 44 °F - 30 °F 46% 29.67 in 12 mi WSW 5.8 mph - -   Clear
2:00 AM 44.6 °F 41.4 °F 30.2 °F 57% 29.65 in 6.2 mi WSW 5.8 mph - N/A   Unknown
2:30 AM 44.6 °F 40.7 °F 30.2 °F 57% 29.65 in 6.2 mi WSW 6.9 mph - N/A   Unknown
3:00 AM 42 °F - 30 °F 52% 29.68 in 12 mi SSW 3.5 mph - -   Clear
3:00 AM 42.8 °F 41.1 °F 30.2 °F 61% 29.65 in 6.2 mi SSW 3.5 mph - N/A   Unknown
3:30 AM 42.8 °F 40.1 °F 30.2 °F 61% 29.68 in 6.2 mi WSW 4.6 mph - N/A   Unknown
4:00 AM 43 °F - 30 °F 48% 29.70 in 12 mi WSW 5.8 mph - -   Clear
4:00 AM 42.8 °F 39.3 °F 30.2 °F 61% 29.68 in 6.2 mi WSW 5.8 mph - N/A   Unknown
4:30 AM 41.0 °F 39.0 °F 30.2 °F 65% 29.68 in 6.2 mi WSW 3.5 mph - N/A   Unknown
5:00 AM 37 °F - 30 °F 66% 29.72 in 12 mi Calm Calm - -   Clear
5:00 AM 37.4 °F - 30.2 °F 75% 29.68 in 6.2 mi Calm Calm - N/A   Unknown
5:30 AM 33.8 °F - 30.2 °F 87% 29.71 in 6.2 mi Calm Calm - N/A   Unknown
6:00 AM 35 °F - 31 °F 78% 29.74 in 12 mi SSW 2.3 mph - -   Clear
6:00 AM 35.6 °F - 30.2 °F 81% 29.71 in 6.2 mi Variable 2.3 mph - N/A   Unknown
6:30 AM 33.8 °F - 30.2 °F 87% 29.74 in 6.2 mi Calm Calm - N/A   Unknown
7:00 AM 32 °F - 29 °F 82% 29.78 in 47 mi NNE 1.2 mph - -   Scattered Clouds
7:00 AM 32.0 °F - 28.4 °F 87% 29.74 in - NNE 1.2 mph - N/A   Clear
8:00 AM 34 °F - 30 °F 79% 29.80 in 47 mi Calm Calm - -   Scattered Clouds
8:00 AM 33.8 °F - 30.2 °F 87% 29.77 in - Calm Calm - N/A   Clear
9:00 AM 43 °F - 33 °F 59% 29.81 in 47 mi Calm Calm - -   Scattered Clouds
9:00 AM 42.8 °F - 33.8 °F 70% 29.80 in - Calm Calm - N/A   Clear
10:00 AM 51 °F - 34 °F 40% 29.82 in 47 mi Calm Calm - -   Partly Cloudy
10:00 AM 50.0 °F - 33.8 °F 54% 29.80 in - Variable 1.2 mph - N/A   Clear
11:00 AM 56 °F - 36 °F 34% 29.83 in 47 mi East 2.3 mph - -   Scattered Clouds
11:00 AM 55.4 °F - 35.6 °F 47% 29.80 in - Variable 2.3 mph - N/A   Clear
12:00 PM 60 °F - 35 °F 28% 29.83 in 47 mi SSE 2.3 mph - -   Scattered Clouds
12:00 PM 60.8 °F - 35.6 °F 39% 29.83 in 6.2 mi Variable 2.3 mph - N/A   Partly Cloudy
1:00 PM 63 °F - 32 °F 20% 29.83 in 47 mi East 2.3 mph - -   Scattered Clouds
1:00 PM 62.6 °F - 33.8 °F 34% 29.83 in 6.2 mi Variable 2.3 mph - N/A   Partly Cloudy
2:00 PM 66 °F - 27 °F 13% 29.83 in 47 mi South 4.6 mph - -   Scattered Clouds
2:00 PM 66.2 °F - 26.6 °F 23% 29.83 in 6.2 mi South 4.6 mph - N/A   Partly Cloudy
3:00 PM 66 °F - 31 °F 16% 29.83 in 47 mi ESE 3.5 mph - -   Partly Cloudy
3:00 PM 66.2 °F - 28.4 °F 24% 29.83 in 6.2 mi Variable 3.5 mph - N/A   Scattered Clouds
4:00 PM 65 °F - 33 °F 19% 29.86 in 47 mi SSE 8.1 mph - -   Partly Cloudy
4:00 PM 64.4 °F - 32.0 °F 30% 29.86 in 6.2 mi SSE 9.2 mph - N/A   Scattered Clouds
5:00 PM 62 °F - 34 °F 23% 29.88 in 47 mi SSE 5.8 mph - -   Partly Cloudy
5:05 PM 62.6 °F - 33.8 °F 34% 29.86 in 6.2 mi SSE 5.8 mph - N/A   Scattered Clouds
6:00 PM 59 °F - 35 °F 29% 29.91 in 47 mi SE 5.8 mph - -   Scattered Clouds
6:00 PM 59.0 °F - 33.8 °F 39% 29.89 in 6.2 mi SE 5.8 mph - N/A   Partly Cloudy
7:00 PM 53 °F - 37 °F 43% 29.95 in 47 mi West 2.3 mph - -   Scattered Clouds
7:00 PM 53.6 °F - 37.4 °F 54% 29.92 in 6.2 mi Variable 2.3 mph - N/A   Partly Cloudy
7:30 PM 51.8 °F - 37.4 °F 58% 29.95 in 6.2 mi Variable 3.5 mph - N/A   Unknown
8:00 PM 49 °F - 38 °F 56% 29.98 in 12 mi South 1.2 mph - -   Clear
8:00 PM 50.0 °F - 37.4 °F 62% 29.95 in 6.2 mi Variable 1.2 mph - N/A   Unknown
8:30 PM 48.2 °F - 37.4 °F 66% 29.98 in 6.2 mi Variable 2.3 mph - N/A   Unknown
9:00 PM 46 °F - 37 °F 61% 29.99 in 12 mi ENE 2.3 mph - -   Clear
9:00 PM 46.4 °F - 37.4 °F 71% 29.98 in 6.2 mi Variable 2.3 mph - N/A   Unknown
9:30 PM 44.6 °F - 37.4 °F 76% 29.98 in 6.2 mi Calm Calm - N/A   Unknown
10:00 PM 44 °F - 37 °F 67% 30.00 in 12 mi Calm Calm - -   Clear
10:00 PM 44.6 °F - 37.4 °F 76% 29.98 in 6.2 mi Calm Calm - N/A   Unknown
10:30 PM 42.8 °F - 35.6 °F 76% 30.01 in 6.2 mi Calm Calm - N/A   Unknown
11:00 PM 41 °F - 36 °F 74% 30.02 in 12 mi Calm Calm - -   Clear
11:00 PM 41.0 °F - 35.6 °F 81% 30.01 in 6.2 mi Calm Calm - N/A   Unknown
11:30 PM 41.0 °F - 35.6 °F 81% 30.01 in 6.2 mi West 2.3 mph - N/A   Unknown